EW2940 Weather Reports


Display with metric or nautical units.
time (UTC)temp
F
wind
direction
speed
MPH
gust
MPH
rain 1hr
in
rain 24hr
in
rain mn
in
humidity
%
barometer
mb
20190122074652 53 82 0.0 6.0 0.00 0.00 0.00 88 1021.1
20190122073109 53 93 0.0 5.0 0.00 0.00 0.00 88 1021.2
20190122071617 53 69 2.0 8.0 0.00 0.00 0.00 88 1021.2
20190122070139 52 79 5.0 9.0 0.00 0.00 0.00 89 1021.4
20190122064633 52 74 2.0 7.0 0.00 0.00 0.00 89 1021.7
20190122063130 51 88 0.0 7.0 0.00 0.00 0.00 89 1021.7
20190122061643 51 90 3.0 10.0 0.00 0.00 0.00 89 1021.9
20190122060112 51 65 8.0 13.0 0.00 0.00 0.00 89 1022.0
20190122054632 51 59 2.0 13.0 0.00 0.00 0.00 89 1022.2
20190122053119 50 69 6.0 14.0 0.00 0.00 0.00 90 1022.3
20190122051633 49 78 8.0 15.0 0.00 0.00 0.00 91 1022.6
20190122050231 48 54 6.0 11.0 0.00 0.00 0.00 92 1022.7
20190122044634 48 67 5.0 11.0 0.00 0.00 0.00 91 1023.0
20190122043111 48 82 2.0 8.0 0.00 0.00 0.00 91 1023.2
20190122041627 47 38 4.0 9.0 0.00 0.00 0.00 91 1023.4
20190122040050 47 47 3.0 8.0 0.00 0.00 0.00 91 1023.3
20190122034631 47 67 0.0 9.0 0.00 0.00 0.00 91 1023.5
20190122033114 46 71 1.0 9.0 0.00 0.00 0.00 91 1023.6
20190122031610 46 55 2.0 9.0 0.00 0.00 0.00 90 1023.8
20190122030046 46 61 5.0 10.0 0.00 0.00 0.00 90 1023.8
20190122024557 46 90 6.0 12.0 0.00 0.00 0.00 90 1023.8
20190122023112 46 75 5.0 14.0 0.00 0.00 0.00 89 1023.8
20190122021604 47 84 6.0 13.0 0.00 0.00 0.00 89 1023.9
20190122020035 47 63 6.0 12.0 0.00 0.00 0.00 89 1023.9
20190122014539 47 78 6.0 11.0 0.00 0.00 0.00 88 1024.0
20190122013052 47 69 6.0 10.0 0.00 0.00 0.00 88 1023.9
20190122011529 48 63 3.0 11.0 0.00 0.00 0.00 87 1023.7
20190122010039 48 53 6.0 15.0 0.00 0.00 0.00 86 1023.3
20190122004607 49 63 6.0 13.0 0.00 0.00 0.00 86 1023.4
20190122003029 49 72 8.0 13.0 0.00 0.00 0.00 85 1023.4
20190122001558 49 90 6.0 13.0 0.00 0.00 0.00 84 1023.6
20190122000037 50 78 6.0 13.0 0.00 0.00 0.00 83 1023.8
20190121234537 51 83 6.0 14.0 0.00 0.00 0.00 82 1023.8
20190121233047 51 80 8.0 11.0 0.00 0.00 0.00 80 1023.9
20190121231547 52 70 7.0 14.0 0.00 0.00 0.00 78 1024.3
20190121230020 52 84 6.0 9.0 0.00 0.00 0.00 78 1024.4
20190121224535 53 75 7.0 13.0 0.00 0.00 0.00 76 1024.5
20190121223014 53 80 5.0 10.0 0.00 0.00 0.00 75 1024.6
20190121221516 54 57 7.0 13.0 0.00 0.00 0.00 74 1024.5
20190121220028 54 53 8.0 13.0 0.00 0.00 0.00 73 1024.7
20190121214533 54 61 7.0 11.0 0.00 0.00 0.00 72 1024.7
20190121213015 54 51 6.0 13.0 0.00 0.00 0.00 72 1024.8
20190121211517 55 66 1.0 11.0 0.00 0.00 0.00 72 1024.8
20190121210021 55 68 7.0 12.0 0.00 0.00 0.00 71 1024.9
20190121204510 54 74 6.0 11.0 0.00 0.00 0.00 70 1025.0
20190121203009 54 63 6.0 12.0 0.00 0.00 0.00 71 1025.0
20190121201531 55 74 6.0 12.0 0.00 0.00 0.00 69 1025.0
20190121200011 55 69 8.0 12.0 0.00 0.00 0.00 69 1025.2
20190121194507 55 85 7.0 13.0 0.00 0.00 0.00 69 1025.3
20190121193014 54 84 7.0 14.0 0.00 0.00 0.00 70 1025.5
20190121191522 55 91 4.0 10.0 0.00 0.00 0.00 69 1025.8
20190121190005 54 66 7.0 13.0 0.00 0.00 0.00 69 1025.9
20190121184506 54 72 8.0 12.0 0.00 0.00 0.00 69 1026.0
20190121183154 53 81 1.0 13.0 0.00 0.00 0.00 71 1026.4
20190121181730 53 80 6.0 13.0 0.00 0.00 0.00 71 1026.7
20190121180235 52 86 8.0 12.0 0.00 0.00 0.00 71 1026.9
20190121174703 51 81 6.0 14.0 0.00 0.00 0.00 73 1027.1
20190121173114 51 82 6.0 13.0 0.00 0.00 0.00 73 1027.5
20190121171631 50 71 9.0 14.0 0.00 0.00 0.00 74 1027.8
20190121170138 49 39 8.0 12.0 0.00 0.00 0.00 76 1028.0
20190121164609 49 80 6.0 15.0 0.00 0.00 0.00 76 1028.4
20190121163137 48 82 7.0 13.0 0.00 0.00 0.00 74 1028.5
20190121161725 48 64 6.0 10.0 0.00 0.00 0.00 75 1028.5
20190121160117 47 71 3.0 11.0 0.00 0.00 0.00 77 1028.6
20190121154611 46 58 4.0 10.0 0.00 0.00 0.00 78 1028.8
20190121153050 45 78 6.0 12.0 0.00 0.00 0.00 79 1028.4
20190121151606 44 84 1.0 9.0 0.00 0.00 0.00 80 1028.0
20190121150036 43 74 2.0 10.0 0.00 0.00 0.00 82 1027.9
20190121144547 42 66 4.0 9.0 0.00 0.00 0.00 83 1027.7
20190121143036 40 71 0.0 8.0 0.00 0.00 0.00 84 1027.6
20190121141540 39 80 1.0 6.0 0.00 0.00 0.00 87 1027.5
20190121140039 37 51 0.0 1.0 0.00 0.00 0.00 93 1027.5
20190121134534 35 57 0.0 3.0 0.00 0.00 0.00 97 1027.0
20190121133006 32 68 0.0 3.0 0.00 0.00 0.00 97 1026.8
20190121131708 31 57 0.0 0.0 0.00 0.00 0.00 97 1026.7
20190121124629 31 57 0.0 0.0 0.00 0.00 0.00 96 1026.4
20190121123108 31 57 0.0 0.0 0.00 0.00 0.00 97 1026.4
20190121121614 31 57 0.0 0.0 0.00 0.00 0.00 96 1025.9
20190121120100 31 57 0.0 0.0 0.00 0.00 0.00 96 1025.9
20190121114633 31 57 0.0 0.0 0.00 0.00 0.00 96 1025.8
20190121113029 30 58 0.0 0.0 0.00 0.00 0.00 96 1025.6
20190121111551 31 57 0.0 0.0 0.00 0.00 0.00 96 1025.7
20190121110034 31 57 0.0 0.0 0.00 0.00 0.00 95 1025.7
20190121103228 32 57 0.0 0.0 0.00 0.00 0.00 95 1025.7
20190121101734 32 57 0.0 0.0 0.00 0.00 0.00 95 1025.5
20190121100158 32 57 0.0 0.0 0.00 0.00 0.00 95 1025.4
20190121094659 32 57 0.0 0.0 0.00 0.00 0.00 95 1025.4
20190121093204 32 57 0.0 0.0 0.00 0.00 0.00 96 1025.6
20190121090115 31 13 0.0 0.0 0.00 0.00 0.00 95 1025.9
20190121084622 32 13 0.0 0.0 0.00 0.00 0.00 95 1025.9
20190121083055 32 13 0.0 0.0 0.00 0.00 0.00 95 1026.0
20190121081650 32 13 0.0 0.0 0.00 0.00 0.00 94 1025.9
20190121080149 32 13 0.0 0.0 0.00 0.00 0.00 94 1025.9